Date String (YYYY-MM-DD hh:mm:ss) UTC,Instrument flags,Ambient pressure (hPa),Sample flow (lpm),Bypass flow (lpm),Sample temperature (°C),Ambient temperature (°C),ASC tube jacket temperature (°C),LED temperature (°C),Box temperature (°C),Sample RH (%),Span deviation,Mass concentration (μg/m³),Mass concentration (μg/m³),Mass concentration (μg/m³)
DateTimeUTC,F1_M11,P_M11,Q1_M11,Q2_M11,T1_M11,T2_M11,T3_M11,T4_M11,T5_M11,U1_M11,ZSPAN_M11,X2_M11,X0_M11,X1_M11
2022-04-04 17:00:00,,0819.0,5.00,0.00,23.6,22.9,00.0,32.6,25.4,14.6,0000.0,0006.83,0018.00,0004.79
2022-04-04 17:01:00,,0819.0,5.01,0.00,23.6,22.9,00.0,32.6,25.4,14.4,0000.0,0006.83,0018.61,0004.83
2022-04-04 17:02:00,,0819.0,5.01,0.00,23.6,22.9,00.0,32.6,25.4,14.3,0000.0,0006.88,0019.12,0004.84
2022-04-04 17:03:00,,0818.9,4.99,0.00,23.6,23.0,00.0,32.6,25.5,14.8,0000.0,0006.94,0019.48,0004.85
2022-04-04 17:04:00,,0818.9,4.99,0.00,23.7,23.0,00.0,32.6,25.5,15.1,0000.0,0007.01,0020.34,0004.88
2022-04-04 17:05:00,,0819.0,5.00,0.00,23.7,23.0,00.0,32.6,25.5,15.1,0000.0,0007.05,0020.36,0004.91
2022-04-04 17:06:00,,0818.9,5.01,0.00,23.7,23.0,00.0,32.6,25.5,15.1,0000.0,0007.06,0020.09,0004.94
2022-04-04 17:07:00,,0818.9,5.01,0.00,23.7,23.0,00.0,32.6,25.5,14.6,0000.0,0007.02,0019.25,0004.97
2022-04-04 17:08:00,,0818.9,5.00,0.00,23.7,23.0,00.0,32.6,25.5,14.9,0000.0,0006.98,0019.26,0004.97
2022-04-04 17:09:00,,0818.9,5.00,0.00,23.7,23.1,00.0,32.6,25.5,14.3,0000.0,0006.95,0018.60,0004.98
2022-04-04 17:10:00,,0818.9,5.00,0.00,23.7,23.1,00.0,32.6,25.5,13.6,0000.0,0006.86,0017.94,0004.96
2022-04-04 17:11:00,,0818.8,5.00,0.00,23.7,23.1,00.0,32.6,25.5,13.0,0000.0,0006.76,0018.28,0004.91
2022-04-04 17:12:00,,0818.8,4.99,0.00,23.7,23.1,00.0,32.6,25.5,13.6,0000.0,0006.76,0018.09,0004.87
2022-04-04 17:13:00,,0818.8,5.00,0.00,23.8,23.1,00.0,32.6,25.6,13.9,0000.0,0006.71,0017.89,0004.86
2022-04-04 17:14:00,,0818.8,5.02,0.00,23.8,23.1,00.0,32.7,25.6,13.9,0000.0,0006.66,0017.24,0004.86
2022-04-04 17:15:00,,0818.8,4.99,0.00,23.8,23.2,00.0,32.7,25.6,13.9,0000.0,0006.60,0016.37,0004.86
2022-04-04 17:16:00,,0818.7,5.00,0.00,23.8,23.2,00.0,32.7,25.6,14.0,0000.0,0006.60,0016.78,0004.84
2022-04-04 17:17:00,,0818.8,5.00,0.00,23.8,23.2,00.0,32.7,25.6,13.7,0000.0,0006.53,0016.95,0004.81
2022-04-04 17:18:00,,0818.8,5.00,0.00,23.9,23.2,00.0,32.7,25.7,13.6,0000.0,0006.50,0016.28,0004.78
2022-04-04 17:19:00,,0818.7,5.00,0.00,23.9,23.3,00.0,32.7,25.7,13.7,0000.0,0006.57,0016.06,0004.76
2022-04-04 17:20:00,,0818.7,5.00,0.00,23.9,23.3,00.0,32.7,25.7,14.4,0000.0,0006.67,0016.46,0004.74
2022-04-04 17:21:00,,0818.7,5.00,0.00,23.9,23.3,00.0,32.8,25.8,14.1,0000.0,0006.83,0016.30,0004.77
2022-04-04 17:22:00,,0818.8,5.00,0.00,23.9,23.3,00.0,32.8,25.7,13.8,0000.0,0006.96,0016.08,0004.83
2022-04-04 17:23:00,,0818.7,5.01,0.00,23.9,23.3,00.0,32.8,25.7,13.6,0000.0,0007.02,0015.80,0004.89
2022-04-04 17:24:00,,0818.8,4.99,0.00,23.9,23.3,00.0,32.8,25.7,13.7,0000.3,0007.01,0015.11,0004.92
2022-04-04 17:25:00,,0818.7,5.00,0.00,24.0,23.3,00.0,32.8,25.8,13.9,0000.8,0007.01,0015.31,0004.94
2022-04-04 17:26:00,,0818.8,5.00,0.00,24.0,23.4,00.0,32.8,25.9,13.9,0000.3,0007.05,0016.09,0004.95
2022-04-04 17:27:00,,0818.8,5.00,0.00,24.0,23.4,00.0,32.8,25.9,14.1,0000.3,0007.09,0015.80,0005.00
2022-04-04 17:28:00,,0818.8,4.99,0.00,24.0,23.4,00.0,32.9,25.9,14.1,0000.2,0007.18,0016.50,0005.08
2022-04-04 17:29:00,,0818.7,5.00,0.00,24.0,23.4,00.0,32.9,25.9,14.0,0000.3,0007.26,0017.86,0005.15
2022-04-04 17:30:00,,0818.7,5.01,0.00,24.1,23.4,00.0,32.9,25.9,14.1,0000.5,0007.27,0018.07,0005.21
2022-04-04 17:31:00,,0818.6,5.00,0.00,24.1,23.4,00.0,32.9,25.9,14.0,0000.8,0007.30,0018.45,0005.29
2022-04-04 17:32:00,,0818.5,5.00,0.00,24.1,23.4,00.0,32.9,25.9,14.1,0000.3,0007.26,0018.42,0005.35
2022-04-04 17:33:00,,0818.5,5.00,0.00,24.1,23.4,00.0,32.9,25.9,14.2,0001.2,0007.28,0018.09,0005.40
2022-04-04 17:34:00,,0818.5,5.00,0.00,24.1,23.4,00.0,33.0,25.9,14.2,0001.0,0007.34,0018.05,0005.45
2022-04-04 17:35:00,,0818.5,5.01,0.00,24.1,23.4,00.0,33.0,26.0,14.4,0000.0,0007.42,0018.08,0005.51
2022-04-04 17:36:00,,0818.5,5.00,0.00,24.1,23.5,00.0,33.0,26.0,14.3,0000.0,0007.50,0018.18,0005.57
2022-04-04 17:37:00,,0818.4,5.00,0.00,24.1,23.5,00.0,33.0,25.9,14.5,0000.0,0007.53,0018.29,0005.63
2022-04-04 17:38:00,,0818.4,5.00,0.00,24.1,23.5,00.0,33.0,26.0,14.1,0000.0,0007.55,0018.72,0005.67
2022-04-04 17:39:00,,0818.2,5.00,0.00,24.1,23.5,00.0,33.0,26.0,14.3,0000.3,0007.52,0018.06,0005.68
2022-04-04 17:40:00,,0818.2,5.00,0.00,24.1,23.5,00.0,33.0,26.0,14.1,0000.0,0007.53,0017.05,0005.70
2022-04-04 17:41:00,,0818.1,4.99,0.00,24.2,23.5,00.0,33.0,26.0,14.3,0000.0,0007.60,0016.96,0005.72
2022-04-04 17:42:00,,0818.1,5.00,0.00,24.2,23.6,00.0,33.0,26.1,14.5,0000.4,0007.61,0016.65,0005.72
2022-04-04 17:43:00,,0818.1,5.00,0.00,24.2,23.6,00.0,33.1,26.1,13.9,0000.2,0007.64,0016.68,0005.72
2022-04-04 17:44:00,,0818.0,5.00,0.00,24.2,23.6,00.0,33.1,26.1,13.6,0000.0,0007.66,0016.85,0005.70
2022-04-04 17:45:00,,0818.0,5.00,0.00,24.3,23.6,00.0,33.1,26.1,13.1,0000.0,0007.67,0017.13,0005.70
2022-04-04 17:46:00,,0818.0,5.00,0.00,24.3,23.6,00.0,33.1,26.2,13.7,0000.0,0007.74,0017.72,0005.71
2022-04-04 17:47:00,,0818.0,4.99,0.00,24.3,23.7,00.0,33.1,26.2,13.9,0000.0,0007.83,0017.85,0005.74
2022-04-04 17:48:00,,0818.0,5.00,0.00,24.3,23.7,00.0,33.1,26.2,14.4,0000.5,0007.82,0017.50,0005.76
2022-04-04 17:49:00,,0818.0,5.00,0.00,24.3,23.7,00.0,33.1,26.2,14.5,0000.4,0007.86,0017.40,0005.78
2022-04-04 17:50:00,,0818.0,5.00,0.00,24.3,23.6,00.0,33.2,26.2,14.4,0000.0,0007.99,0017.40,0005.84
2022-04-04 17:51:00,,0817.9,5.01,0.00,24.3,23.6,00.0,33.2,26.1,14.0,0000.6,0008.10,0017.99,0005.91
2022-04-04 17:52:00,,0817.9,5.01,0.00,24.3,23.6,00.0,33.2,26.2,13.9,0000.9,0008.07,0018.22,0005.96
2022-04-04 17:53:00,,0817.8,5.01,0.00,24.3,23.7,00.0,33.2,26.2,13.6,0002.0,0008.07,0018.72,0006.00
2022-04-04 17:54:00,,0817.8,5.00,0.00,24.3,23.7,00.0,33.2,26.2,14.0,0002.6,0008.12,0018.78,0006.04
2022-04-04 17:55:00,,0817.8,4.99,0.00,24.3,23.7,00.0,33.2,26.2,13.0,0002.6,0008.19,0019.03,0006.08
2022-04-04 17:56:00,,0817.7,4.99,0.00,24.4,23.7,00.0,33.2,26.3,13.1,0002.4,0008.20,0018.94,0006.11
2022-04-04 17:57:00,,0817.7,5.00,0.00,24.4,23.8,00.0,33.2,26.3,13.2,0001.9,0008.25,0018.55,0006.12
2022-04-04 17:58:00,,0817.7,5.00,0.00,24.4,23.8,00.0,33.2,26.3,13.3,0002.0,0008.21,0018.83,0006.09
2022-04-04 17:59:00,,0817.7,5.00,0.00,24.4,23.8,00.0,33.3,26.3,13.5,0002.4,0008.21,0019.76,0006.04
